#timestamp,LO_Frequency,Hit 
1499742015.4,286047044.6,N
1499742035.2,286047045.7,N
1499742055.0,286047046.5,N
1499742055.9,286047046.5,N
1499742075.8,286047047.9,N
1499742095.6,286047049.5,N
1499742115.4,286047051.9,N
1499742135.3,286047049.8,N
1499742155.1,286047052.3,N
1499742156.0,286047052.3,N
1499742175.8,286047050.9,N
1499742195.6,286047051.1,N
1499742215.5,286047050.1,N
1499742235.3,286047049.8,N
1499742255.1,286047050.3,N
1499742275.9,286047049.7,N
1499742295.7,286047051.9,N
1499742315.5,286047051.5,N
1499742335.4,286047052.4,N
1499742355.2,286047049.4,N
1499742375.0,286047048.7,N
1499742375.9,286047048.7,N
1499742395.8,286047049.2,N
1499742415.6,286047050.3,N
1499742435.4,286047050.6,N
1499742455.3,286047048.5,N
1499742475.1,286047048.5,N
1499742476.0,286047048.5,N
1499742495.8,286047050.4,N
1499742515.7,286047049.6,N
1499742535.5,286047050.0,N
1499742555.3,286047052.3,N
1499742575.2,286047050.3,N
1499742595.9,286047052.3,N
1499742615.7,286047052.0,N
1499742635.5,286047049.6,N
1499742655.4,286047051.9,N
1499742675.2,286047051.4,N
1499742695.0,286047052.0,N
1499742695.9,286047052.0,N
1499742715.8,286047049.4,N
1499742735.6,286047049.4,N
1499742755.4,286047052.0,N
1499742775.3,286047051.2,N
1499742795.1,286047051.4,N
1499742815.8,286047052.9,N
1499742835.7,286047053.2,N
1499742855.5,286047053.7,N
1499742875.3,286047053.1,N
1499742895.2,286047053.3,N
1499742915.9,286047053.6,N
1499742935.7,286047051.0,N
1499742955.6,286047053.3,N
1499742975.4,286047052.2,N
1499742995.2,286047050.6,N
1499743015.1,286047052.1,N
1499743016.0,286047052.1,N
1499743035.8,286047051.7,N
1499743055.6,286047053.7,N
1499743075.4,286047053.3,N
1499743095.3,286047054.9,N
1499743115.1,286047052.5,N
1499743135.8,286047051.2,N
1499743155.7,286047053.1,N
1499743175.5,286047052.7,N
1499743195.3,286047055.4,N
1499743215.2,286047053.1,N
1499743235.9,286047052.0,N
1499743255.7,286047051.6,N
1499743275.6,286047053.1,N
1499743295.4,286047055.3,N
1499743315.2,286047053.4,N
1499743335.1,286047051.7,N
1499743336.0,286047051.7,N
1499743355.8,286047053.4,N
1499743375.6,286047054.9,N
1499743395.4,286047054.4,N
1499743415.3,286047057.2,N
1499743435.1,286047056.5,N
1499743455.8,286047057.2,N
1499743475.7,286047056.5,N
1499743495.5,286047054.5,N
1499743515.3,286047052.9,N
1499743535.2,286047052.9,N
1499743555.9,286047055.3,N
1499743575.7,286047052.7,N
1499743595.6,286047055.5,N
1499743615.4,286047054.3,N
1499743635.2,286047055.8,N
1499743655.1,286047058.1,N
1499743656.0,286047058.1,N
1499743675.8,286047060.2,N
1499743695.6,286047059.7,N
1499743715.4,286047060.4,N
1499743735.3,286047055.7,N
1499743755.1,286047056.3,N
1499743775.8,286047056.2,N
1499743795.7,286047055.9,N
1499743815.5,286047058.7,N
1499743835.3,286047058.3,N
1499743855.2,286047057.4,N
1499743875.9,286047059.9,N
1499743895.7,286047058.6,N
1499743915.6,286047056.1,N
1499743935.4,286047056.7,N
1499743955.2,286047058.1,N
1499743975.1,286047058.7,N
1499743976.0,286047058.7,N
1499743995.8,286047054.7,N
1499744015.6,286047052.9,N
1499744035.5,286047053.7,N
1499744055.3,286047052.6,N
1499744075.1,286047053.3,N
1499744095.8,286047055.0,N
1499744115.7,286047053.9,N
1499744135.5,286047052.7,N
1499744155.3,286047054.2,N
1499744175.2,286047055.1,N
1499744195.9,286047054.5,N
1499744215.7,286047056.9,N
1499744235.6,286047055.9,N
1499744255.4,286047058.2,N
1499744275.2,286047057.8,N
1499744295.1,286047060.8,N
1499744296.0,286047060.8,N
1499744315.8,286047062.5,N
1499744335.6,286047062.4,N
1499744355.4,286047062.1,N
1499744375.3,286047063.0,N
1499744395.1,286047060.8,N
1499744415.8,286047058.9,N
1499744435.7,286047061.2,N
1499744455.5,286047060.5,N
1499744475.3,286047063.2,N
1499744495.2,286047060.7,N
1499744515.9,286047063.5,N
1499744535.7,286047062.5,N
1499744555.6,286047065.0,N
1499744575.4,286047064.5,N
1499744595.2,286047064.6,N
1499744615.1,286047065.0,N
1499744616.0,286047065.0,N
1499744635.8,286047062.1,N
1499744655.6,286047062.6,N
1499744675.4,286047064.6,N
1499744695.3,286047064.3,N
1499744715.1,286047064.2,N
1499744735.8,286047065.1,N
1499744755.7,286047062.8,N
1499744775.5,286047061.8,N
1499744795.3,286047060.8,N
1499744815.2,286047060.5,N
1499744835.9,286047060.9,N
1499744855.7,286047058.9,N
1499744875.6,286047064.8,N
1499744895.4,286047064.8,N
1499744915.2,286047062.6,N
1499744935.1,286047064.8,N
1499744936.0,286047064.8,N
1499744955.8,286047063.9,N
1499744975.6,286047063.9,N
1499744995.5,286047066.7,Y
1499745015.3,286047009.0,N
1499745035.1,286047007.9,N
1499745055.9,286047008.1,N
1499745075.7,286047010.7,N
1499745095.5,286047009.6,N
1499745115.3,286047010.2,N
1499745135.2,286047007.7,N
1499745155.0,286047008.2,N
1499745155.9,286047008.2,N
1499745175.7,286047008.1,N
1499745195.6,286047009.0,N
1499745215.4,286047010.1,N
1499745235.2,286047009.3,N
1499745255.1,286047013.7,N
1499745256.0,286047013.7,N
1499745275.8,286047011.4,N
1499745295.6,286047009.8,N
1499745315.5,286047009.9,N
1499745335.3,286047010.7,N
1499745355.1,286047010.0,N
1499745375.9,286047010.2,N
1499745395.7,286047009.5,N
1499745415.5,286047010.6,N
1499745435.4,286047010.6,N
1499745455.2,286047010.8,N
1499745475.0,286047010.2,N
1499745475.9,286047010.2,N
1499745495.8,286047012.0,N
1499745515.6,286047010.9,N
1499745535.4,286047012.2,N
1499745555.2,286047012.0,N
1499745575.1,286047009.3,N
1499745576.0,286047009.3,N
1499745595.8,286047011.6,N
